Showing default

RCM 3, 44323

Orbit data source: Space-Track

RCM 3, 44323 is a payload satellite owned by CSA (CA) in SSO that was launched on Wed, 12 Jun 2019 UTC via an FALCON 9 launch vehicle from the Air Force Western Test Range (AFWTR). Payload-class satellites include a variety of spacecraft equipped with specific instruments for various scientific and technological missions. These include communications satellites like Starlink; space stations such as the ISS; scientific satellites like the Hubble; Earth observation satellites from companies like Planet Labs, Umbra, and HawkEye 360; GPS; miniature CubeSats for education and research; and military/defense satellites.

Loading next visibility...
Identifier
44323, 2019-033B
Orbit
SSO
Country
Flag of CACA
Related business
Manufacturer
BALM/MAXAR
Mission
Operational Civil Radar Imaging
Bus & Motor
MAC-200, Unknown motor
Mass
1,450 kg wet, ~1,400 kg dry
Launch date (UTC)
2019-06-12 (6 years ago)
Launch vehicle
FALCON 9
Launch site
Air Force Western Test Range (AFWTR)
Object type
Payload
Rocket body
Debris
Shape & HBR
Box + 2 Pan, 3.5 m
Radar Cross Section
10.097 m², Large (>1 m²)

Expand to show TLE details & history
Last TLE update: 2 days ago

TLE from 2 days ago
0 RCM 3
1 44323U 19033B   25259.50356975  .00001152  00000-0  11745-3 0  9995
2 44323  97.7597 265.9705 0001493  91.3764 268.7626 14.92592748341278
Epoch: 2025-09-16T12:05Z
TLE epoch observation values (Epoch: 2025-09-16T12:05:08.426Z)
Latitude
-0.00004°
Longitude
88.99247°
Altitude
592.92 km
Speed
7.563 km/s
True Right ascension
17h 43m 52s
True Declination
0° 00' 00"
Sunlit
Object was in daylight at epoch
Visualization orbit readout
Latitude
Unknown
Longitude
Unknown
Altitude
Unknown
Speed
Unknown
Apparent Right ascension
Unknown
Apparent Declination
Unknown
Sunlit
N/A
Visualization observer readout
Local Sidereal Time
22:18:02
Azimuth
Unknown
Elevation
Unknown
Doppler factor
Unknown
Orbital elements
Apogee altitude
587.912 km
Perigee altitude
585.833 km
Semi-major axis
6,965.009 km
Eccentricity
0.00015
Inclination
97.7597°
RAAN
265.9705°
Arg. of periapsis
91.3764°
True anomaly
268.7455°
Mean anomaly
268.7626°
Eccentric anomaly
268.75405°
Mean motion
3.73388 °/min
Orbital period
96.41 mins
BSTAR
0.00011745
Loading maneuver chart data...
Computing Atmospheric mass density...
Loading historical data...
Loading historical data...
Loading historical data...
Loading historical data...
Loading historical data...
Loading historical data...
Loading historical data...
Other satellites on launch #33 in the year 2019 (2019-06-12 UTC)

Documentation

Showing up to 5 results
|